Date String (YYYY-MM-DD hh:mm:ss) UTC,Instrument flags,Ambient pressure (hPa),Sample flow (lpm),Bypass flow (lpm),Sample temperature (°C),Ambient temperature (°C),ASC tube jacket temperature (°C),LED temperature (°C),Box temperature (°C),Sample RH (%),Span deviation,Mass concentration (μg/m³),Mass concentration (μg/m³),Mass concentration (μg/m³)
DateTimeUTC,F1_M11,P_M11,Q1_M11,Q2_M11,T1_M11,T2_M11,T3_M11,T4_M11,T5_M11,U1_M11,ZSPAN_M11,X2_M11,X0_M11,X1_M11
2023-01-06 15:00:00,,0821.4,5.00,0.00,22.0,20.2,00.0,31.1,23.6,09.5,0000.0,0002.15,0003.49,0001.85
2023-01-06 15:01:00,,0821.5,5.01,0.00,22.0,20.2,00.0,31.0,23.6,09.5,0000.0,0002.11,0003.43,0001.84
2023-01-06 15:02:00,,0821.5,4.99,0.00,21.9,20.2,00.0,31.0,23.5,09.5,0000.0,0002.07,0003.37,0001.81
2023-01-06 15:03:00,,0821.4,5.00,0.00,21.9,20.2,00.0,31.0,23.5,09.6,0000.0,0002.05,0003.38,0001.79
2023-01-06 15:04:00,,0821.4,5.00,0.00,21.9,20.2,00.0,30.9,23.5,09.5,0000.0,0002.07,0003.36,0001.81
2023-01-06 15:05:00,,0821.4,5.00,0.00,22.0,21.3,00.0,30.9,23.7,09.5,0000.0,0002.12,0003.46,0001.84
2023-01-06 15:06:00,,0821.4,5.00,0.00,22.1,22.5,00.0,30.9,24.1,09.3,0000.0,0002.15,0003.36,0001.88
2023-01-06 15:07:00,,0821.4,4.99,0.00,22.2,23.0,00.0,30.9,24.3,09.1,0000.0,0002.22,0003.14,0001.95
2023-01-06 15:08:00,,0821.4,4.98,0.00,22.3,22.6,00.0,31.0,24.2,09.2,0000.0,0002.33,0004.36,0002.01
2023-01-06 15:09:00,,0821.4,5.00,0.00,22.3,22.1,00.0,31.0,24.2,09.1,0000.0,0002.42,0004.72,0002.08
2023-01-06 15:10:00,,0821.4,5.00,0.00,22.3,21.6,00.0,31.0,24.1,09.1,0000.0,0002.49,0004.73,0002.14
2023-01-06 15:11:00,,0821.4,5.00,0.00,22.3,21.3,00.0,31.0,24.0,09.2,0000.0,0002.53,0004.68,0002.18
2023-01-06 15:12:00,,0821.4,5.01,0.00,22.2,21.1,00.0,31.0,24.0,09.2,0000.0,0002.63,0004.90,0002.21
2023-01-06 15:13:00,,0821.5,5.01,0.00,22.2,21.1,00.0,31.0,24.0,09.2,0000.0,0002.70,0005.02,0002.23
2023-01-06 15:14:00,,0821.5,5.01,0.00,22.2,21.0,00.0,31.1,24.0,09.2,0000.0,0002.73,0005.10,0002.22
2023-01-06 15:15:00,,0821.5,4.99,0.00,22.2,21.0,00.0,31.1,24.0,09.2,0000.0,0002.73,0005.10,0002.20
2023-01-06 15:16:00,,0821.5,5.00,0.00,22.2,21.0,00.0,31.1,24.0,09.2,0000.0,0002.72,0005.12,0002.17
2023-01-06 15:17:00,,0821.4,5.00,0.00,22.2,21.0,00.0,31.1,24.0,09.2,0000.0,0002.70,0005.21,0002.14
2023-01-06 15:18:00,,0821.4,5.00,0.00,22.2,21.0,00.0,31.1,24.0,09.2,0000.0,0002.64,0005.67,0002.06
2023-01-06 15:19:00,,0821.4,5.00,0.00,22.3,21.1,00.0,31.1,24.0,09.2,0000.0,0002.52,0004.83,0001.97
2023-01-06 15:20:00,,0821.4,5.00,0.00,22.2,21.1,00.0,31.1,24.0,09.2,0000.0,0002.39,0004.31,0001.87
2023-01-06 15:21:00,,0821.4,5.00,0.00,22.3,21.1,00.0,31.1,24.0,09.2,0000.0,0002.30,0004.18,0001.78
2023-01-06 15:22:00,,0821.5,5.00,0.00,22.3,21.1,00.0,31.1,24.0,09.2,0000.0,0002.22,0004.06,0001.70
2023-01-06 15:23:00,,0821.6,5.00,0.00,22.3,21.1,00.0,31.1,24.0,09.2,0000.0,0002.09,0003.88,0001.65
2023-01-06 15:24:00,,0821.6,4.99,0.00,22.3,21.1,00.0,31.1,24.0,09.2,0000.0,0002.02,0003.89,0001.59
2023-01-06 15:25:00,,0821.7,5.01,0.00,22.3,21.1,00.0,31.1,24.0,09.2,0000.0,0001.93,0003.71,0001.55
2023-01-06 15:26:00,,0821.7,5.01,0.00,22.3,21.0,00.0,31.1,24.0,09.3,0000.0,0001.86,0003.63,0001.52
2023-01-06 15:27:00,,0821.7,5.00,0.00,22.3,21.1,00.0,31.1,24.0,09.3,0000.0,0001.83,0003.58,0001.48
2023-01-06 15:28:00,,0821.7,5.00,0.00,22.3,21.1,00.0,31.0,24.0,09.3,0000.0,0001.76,0003.38,0001.44
2023-01-06 15:29:00,,0821.7,5.00,0.00,22.3,21.0,00.0,31.1,24.0,09.3,0000.0,0001.73,0003.14,0001.42
2023-01-06 15:30:00,,0821.8,5.00,0.00,22.2,21.0,00.0,31.1,23.9,09.3,0000.0,0001.72,0003.09,0001.40
2023-01-06 15:31:00,,0821.8,4.99,0.00,22.2,20.9,00.0,31.1,23.9,09.4,0000.0,0001.73,0002.95,0001.40
2023-01-06 15:32:00,,0821.7,4.99,0.00,22.2,20.8,00.0,31.1,23.9,09.5,0000.0,0001.71,0002.91,0001.39
2023-01-06 15:33:00,,0821.7,5.01,0.00,22.2,20.7,00.0,31.0,23.8,09.5,0000.0,0001.72,0003.74,0001.39
2023-01-06 15:34:00,,0821.7,5.01,0.00,22.2,20.7,00.0,31.0,23.8,09.5,0000.0,0001.72,0004.56,0001.40
2023-01-06 15:35:00,,0821.7,5.01,0.00,22.2,21.1,00.0,31.0,23.9,09.5,0000.0,0001.68,0004.35,0001.40
2023-01-06 15:36:00,,0821.8,4.99,0.00,22.3,22.1,00.0,31.0,24.2,09.4,0000.0,0001.69,0004.34,0001.41
2023-01-06 15:37:00,,0821.8,5.00,0.00,22.4,23.1,00.0,31.0,24.4,09.3,0000.0,0001.73,0004.42,0001.43
2023-01-06 15:38:00,,0821.8,5.00,0.00,22.5,22.9,00.0,31.1,24.5,09.3,0000.0,0001.79,0004.52,0001.45
2023-01-06 15:39:00,,0821.8,4.99,0.00,22.5,22.5,00.0,31.1,24.4,09.3,0000.0,0001.89,0004.71,0001.51
2023-01-06 15:40:00,,0821.8,5.01,0.00,22.5,22.1,00.0,31.2,24.4,09.3,0000.0,0002.01,0004.70,0001.58
2023-01-06 15:41:00,,0821.8,4.99,0.00,22.5,21.8,00.0,31.2,24.3,09.3,0000.0,0002.09,0004.62,0001.64
2023-01-06 15:42:00,,0821.8,5.00,0.00,22.5,21.6,00.0,31.2,24.3,09.4,0000.0,0002.12,0004.68,0001.68
2023-01-06 15:43:00,,0821.8,5.00,0.00,22.5,21.5,00.0,31.2,24.3,09.6,0000.0,0002.18,0004.92,0001.72
2023-01-06 15:44:00,,0821.8,4.99,0.00,22.5,21.4,00.0,31.2,24.2,09.7,0000.0,0002.23,0004.13,0001.77
2023-01-06 15:45:00,,0821.9,4.99,0.00,22.5,21.3,00.0,31.2,24.2,09.9,0000.0,0002.30,0003.48,0001.82
2023-01-06 15:46:00,,0821.8,5.00,0.00,22.5,21.3,00.0,31.2,24.2,10.0,0000.0,0002.44,0003.77,0001.89
2023-01-06 15:47:00,,0821.7,5.00,0.00,22.5,21.2,00.0,31.2,24.2,10.0,0000.0,0002.49,0003.81,0001.95
2023-01-06 15:48:00,,0821.8,5.00,0.00,22.4,21.1,00.0,31.2,24.1,09.9,0000.0,0002.51,0003.85,0001.98
2023-01-06 15:49:00,,0821.8,4.99,0.00,22.4,21.1,00.0,31.2,24.1,09.6,0000.0,0002.53,0003.95,0001.96
2023-01-06 15:50:00,,0821.8,5.00,0.00,22.4,21.0,00.0,31.2,24.1,09.5,0000.0,0002.51,0004.68,0001.94
2023-01-06 15:51:00,,0821.8,4.99,0.00,22.4,21.0,00.0,31.2,24.1,09.5,0000.0,0002.44,0004.68,0001.89
2023-01-06 15:52:00,,0821.8,5.00,0.00,22.4,20.9,00.0,31.2,24.0,09.5,0000.0,0002.41,0005.54,0001.85
2023-01-06 15:53:00,,0821.8,5.01,0.00,22.3,20.8,00.0,31.2,23.9,09.5,0000.0,0002.42,0005.62,0001.83
2023-01-06 15:54:00,,0821.8,5.00,0.00,22.3,20.8,00.0,31.2,23.9,09.4,0000.0,0002.36,0006.40,0001.80
2023-01-06 15:55:00,,0821.8,5.00,0.00,22.2,20.7,00.0,31.2,23.9,09.5,0000.0,0002.27,0006.19,0001.73
2023-01-06 15:56:00,,0821.8,4.99,0.00,22.2,20.7,00.0,31.2,23.9,09.5,0000.0,0002.22,0006.16,0001.67
2023-01-06 15:57:00,,0821.8,5.01,0.00,22.2,20.7,00.0,31.1,23.9,09.5,0000.0,0002.12,0006.05,0001.59
2023-01-06 15:58:00,,0821.7,4.98,0.00,22.2,20.7,00.0,31.1,23.8,09.5,0000.0,0002.04,0006.00,0001.49
2023-01-06 15:59:00,,0821.8,5.00,0.00,22.2,20.7,00.0,31.1,23.9,09.6,0000.0,0002.03,0006.12,0001.42
